Weather History for Willimantic, CT

Change the Weather History Date:

Wednesday, December 28, 2011

  Actual Average Record
Temperature  
Mean Temperature 42 °F -  
Max Temperature 57 °F 33 °F 60 °F (2008)
Min Temperature 28 °F 16 °F -4 °F (1960)
Degree Days  
Heating Degree Days 22    
Moisture  
Dew Point 33 °F    
Average Humidity 67    
Maximum Humidity 88    
Minimum Humidity 51    
Precipitation  
Precipitation 0.01 in - - ()
Sea Level Pressure  
Sea Level Pressure 29.42 in    
Wind  
Wind Speed 10 mph (West)    
Max Wind Speed 17 mph    
Max Gust Speed 31 mph    
Visibility 10 miles    
Events Rain    
Averages and records for this station are not official NWS values.
T = Trace of Precipitation, MM = Missing Value Source: NWS Daily Summary

Daily Weather History Graph

Daily Weather History Graph

Search for Another Location

Airport:

Trip Planner

Search our weather history database for the weather conditions in past years. The results will help you decide how hot, cold, wet, or windy it might be!

Date:

Astronomy

Dec. 28, 2011 Rise Set
Actual Time 7:15 AM EST 4:25 PM EST
Civil Twilight 6:43 AM EST 4:56 PM EST
Nautical Twilight 6:08 AM EST 5:31 PM EST
Astronomical Twilight 5:34 AM EST 6:05 PM EST
Moon 9:36 AM EST (12/28) 9:02 PM EST (12/28)
Length of Visible Light 10h 13m
Length of Day
9h 10m
Waxing Crescent, 18% of the Moon is Illuminated
Dec 28
Waxing Crescent
Jan 1
First Quarter
Jan 9
Full
Jan 16
Last Quarter
Jan 23
New

Hourly Weather History & Observations

Time (EST) Temp. Windchill Dew Point Humidity Pressure Visibility Wind Dir Wind Speed Gust Speed Precip Events Conditions
12:08 AM 57.2 °F - 53.6 °F 88% 29.31 in 10.0 mi SSW 16.1 mph 23.0 mph 0.00 in   Overcast
12:52 AM 55.0 °F - 51.1 °F 86% 29.31 in 10.0 mi SSW 8.1 mph - 0.00 in   Overcast
1:31 AM 53.6 °F - 48.2 °F 82% 29.31 in 10.0 mi SW 6.9 mph 18.4 mph N/A   Scattered Clouds
1:41 AM 53.6 °F - 48.2 °F 82% 29.31 in 10.0 mi SW 11.5 mph 21.9 mph N/A   Mostly Cloudy
1:52 AM 53.1 °F - 46.9 °F 80% 29.31 in 10.0 mi SW 8.1 mph - N/A   Mostly Cloudy
2:23 AM 51.8 °F - 46.4 °F 82% 29.31 in 10.0 mi SW 5.8 mph - N/A   Scattered Clouds
2:52 AM 51.1 °F - 45.0 °F 80% 29.32 in 10.0 mi SSW 6.9 mph - N/A   Mostly Cloudy
3:26 AM 50.0 °F - 44.6 °F 82% 29.31 in 10.0 mi SW 5.8 mph - N/A   Overcast
3:52 AM 50.0 °F - 42.1 °F 74% 29.32 in 10.0 mi SW 6.9 mph - N/A   Overcast
4:05 AM 48.2 °F - 42.8 °F 82% 29.32 in 10.0 mi SW 5.8 mph - N/A   Overcast
4:24 AM 48.2 °F - 39.2 °F 71% 29.32 in 10.0 mi West 9.2 mph - N/A   Mostly Cloudy
4:52 AM 48.0 °F - 36.0 °F 63% 29.32 in 10.0 mi WSW 11.5 mph 19.6 mph 0.01 in   Mostly Cloudy
5:03 AM 48.2 °F - 35.6 °F 62% 29.32 in 10.0 mi WSW 9.2 mph - N/A   Mostly Cloudy
5:27 AM 46.4 °F 41.5 °F 35.6 °F 66% 29.32 in 10.0 mi West 10.4 mph 18.4 mph N/A   Mostly Cloudy
5:52 AM 46.0 °F 42.5 °F 36.0 °F 68% 29.34 in 10.0 mi WSW 6.9 mph - N/A   Clear
6:52 AM 45.0 °F 40.6 °F 36.0 °F 71% 29.35 in 10.0 mi SW 8.1 mph - N/A   Overcast
7:52 AM 44.1 °F 39.5 °F 35.1 °F 71% 29.36 in 10.0 mi West 8.1 mph - N/A   Clear
8:41 AM 44.6 °F 41.4 °F 33.8 °F 66% 29.37 in 10.0 mi West 5.8 mph - N/A   Overcast
8:52 AM 45.0 °F 40.1 °F 34.0 °F 65% 29.38 in 10.0 mi WSW 9.2 mph - N/A   Overcast
9:52 AM 44.1 °F 40.8 °F 34.0 °F 68% 29.39 in 10.0 mi Variable 5.8 mph - N/A   Overcast
10:37 AM 44.6 °F 39.2 °F 33.8 °F 66% 29.40 in 10.0 mi WNW 10.4 mph 18.4 mph 0.00 in Rain Light Rain
10:52 AM 44.1 °F 40.1 °F 33.1 °F 65% 29.39 in 10.0 mi WNW 6.9 mph 20.7 mph 0.00 in   Overcast
11:52 AM 44.1 °F 37.7 °F 30.9 °F 60% 29.39 in 10.0 mi West 12.7 mph 19.6 mph N/A   Overcast
12:52 PM 44.1 °F 37.4 °F 30.0 °F 58% 29.40 in 10.0 mi WNW 13.8 mph 23.0 mph 0.00 in Rain Light Rain
1:52 PM 43.0 °F 37.2 °F 28.0 °F 56% 29.43 in 10.0 mi NW 10.4 mph 21.9 mph 0.00 in   Mostly Cloudy
2:52 PM 39.9 °F 31.8 °F 24.1 °F 53% 29.48 in 10.0 mi WNW 15.0 mph 31.1 mph N/A   Mostly Cloudy
3:52 PM 37.9 °F 28.5 °F 21.0 °F 51% 29.52 in 10.0 mi WNW 17.3 mph 27.6 mph N/A   Mostly Cloudy
4:52 PM 36.0 °F 29.0 °F 19.9 °F 52% 29.55 in 10.0 mi WNW 9.2 mph 19.6 mph N/A   Clear
5:52 PM 34.0 °F 26.6 °F 18.0 °F 52% 29.59 in 10.0 mi NW 9.2 mph 17.3 mph N/A   Clear
7:52 PM 30.9 °F 19.8 °F 15.1 °F 52% 29.66 in 10.0 mi NW 16.1 mph 28.8 mph N/A   Clear
8:52 PM 28.9 °F 17.7 °F 15.1 °F 56% 29.68 in 10.0 mi WNW 15.0 mph 24.2 mph N/A   Clear
9:52 PM 28.9 °F 19.2 °F 14.0 °F 54% 29.70 in 10.0 mi WNW 11.5 mph 26.5 mph N/A   Clear
10:52 PM 28.9 °F 18.2 °F 14.0 °F 54% 29.72 in 10.0 mi West 13.8 mph 27.6 mph N/A   Clear
11:52 PM 28.9 °F 17.3 °F 14.0 °F 54% 29.74 in 10.0 mi WNW 16.1 mph 25.3 mph N/A   Clear